STARLINK-4467, 53686

Orbit data source: Space-Track

STARLINK-4467, 53686 is a payload satellite owned by SpaceX/Seattle (US) in SSO that was launched on Wed, 31 Aug 2022 UTC via an FALCON 9 launch vehicle from the Air Force Western Test Range (AFWTR). Payload-class satellites include a variety of spacecraft equipped with specific instruments for various scientific and technological missions. These include communications satellites like Starlink; space stations such as the ISS; scientific satellites like the Hubble; Earth observation satellites from companies like Planet Labs, Umbra, and HawkEye 360; GPS; miniature CubeSats for education and research; and military/defense satellites.

Loading next visibility...
Identifier
53686, 2022-105AQ
Orbit
SSO
Country
Flag of USUS
Related business
Manufacturer
SpaceX/Seattle
Mission
Operational Commercial Communications
Bus & Motor
STARLINK, Unknown motor
Mass
300 kg wet, ~290 kg dry
Launch date (UTC)
2022-08-31 (4 years ago)
Launch vehicle
FALCON 9
Launch site
Air Force Western Test Range (AFWTR)
Object type
Payload
Rocket body
Debris
Shape & HBR
Box + 1 Pan, 10.1 m
Radar Cross Section
13.562 m², Large (>1 m²)

Expand to show TLE details & history
Last TLE update: 2 days ago

TLE from 2 days ago
0 STARLINK-4467
1 53686U 22105AQ  26171.39608779  .00010783  00000-0  74943-3 0  9993
2 53686  97.3449  50.1970 0000263  73.7935 286.3321 15.05687332208682
Epoch: 2026-06-20T09:30Z
TLE epoch observation values (Epoch: 2026-06-20T09:30:21.985Z)
Latitude
-0.00004°
Longitude
-1.00591°
Altitude
552.418 km
Speed
7.586 km/s
True Right ascension
03h 20m 47s
True Declination
0° 00' 00"
Sunlit
Object was in daylight at epoch
Visualization orbit readout
Latitude
Unknown
Longitude
Unknown
Altitude
Unknown
Speed
Unknown
Apparent Right ascension
Unknown
Apparent Declination
Unknown
Sunlit
N/A
Visualization observer readout
Local Sidereal Time
23:08:43
Azimuth
Unknown
Elevation
Unknown
Doppler factor
Unknown
Orbital elements
Apogee altitude
546.561 km
Perigee altitude
546.197 km
Semi-major axis
6,924.516 km
Eccentricity
0.00003
Inclination
97.3449°
RAAN
50.197°
Arg. of periapsis
73.7935°
True anomaly
286.32921°
Mean anomaly
286.3321°
Eccentric anomaly
286.33065°
Mean motion
3.76668 °/min
Orbital period
95.57 mins
BSTAR
0.00074943
Loading maneuver chart data...
Computing Atmospheric mass density...
Loading historical data...
Loading historical data...
Loading historical data...
Loading historical data...
Loading historical data...
Loading historical data...
Loading historical data...

Documentation

Showing up to 5 results
|